FLOCK 3P-12

Last updated on Wed Feb 14 2018 16:20:22 GMT+0000 (Coordinated Universal Time)

1 41972U 17008AA 18044.92078571 .00001265 00000-0 55288-4 0 9991 2 41972 97.4659 110.4305 0009678 72.7516 287.4780 15.23919372 55252
UTC large
Height (km)
Speed (km/s)
/
Latitude / Longitude
Inclination (degrees)
Orbital Period (minutes)
Azimuth
Elevation
Range (km)
Doppler Factor

Next 0 passes for location: London (51.5072 / 0.1276)

Sorry there are no passes over London.